• In Uzbekistan
  • List of Countries
  • For 7 days
  • Water Temperature
  • Satellite Maps
  • Weather Map
  • Weather Widgets
  • user-avatar
    Login

    Hourly Weather Ali Bayramli

    Today, 26 May, Friday

    Time Temperature Precipitation Wind Pressure Humidity
    00:00 +18°C° 0 mm 3 mps 761 mmHg 69%
    01:00 +18°C° 0 mm 3 mps 761 mmHg 69%
    02:00 +18°C° 0 mm 2 mps 761 mmHg 70%
    03:00 +17°C° 0 mm 2 mps 761 mmHg 70%
    04:00 +19°C° 0 mm 1 mps 761 mmHg 68%
    05:00 +19°C° 0 mm 1 mps 761 mmHg 66%
    06:00 +20°C° 0 mm 1 mps 761 mmHg 64%
    07:00 +21°C° 0 mm 1 mps 761 mmHg 61%
    08:00 +21°C° 0 mm 2 mps 761 mmHg 58%
    09:00 +23°C° 0 mm 2 mps 761 mmHg 55%
    10:00 +24°C° 0 mm 2 mps 761 mmHg 53%
    11:00 +25°C° 0 mm 3 mps 761 mmHg 51%
    12:00 +26°C° 0 mm 4 mps 760 mmHg 49%
    13:00 +26°C° 0 mm 4 mps 760 mmHg 48%
    14:00 +26°C° 0 mm 4 mps 759 mmHg 48%
    15:00 +27°C° 0 mm 5 mps 758 mmHg 47%
    16:00 +26°C° 0 mm 5 mps 758 mmHg 51%
    17:00 +25°C° 0 mm 5 mps 758 mmHg 55%
    18:00 +23°C° 0 mm 5 mps 758 mmHg 59%
    19:00 +21°C° 0 mm 4 mps 758 mmHg 63%
    20:00 +20°C° 0 mm 4 mps 759 mmHg 68%
    21:00 +19°C° 0 mm 3 mps 759 mmHg 72%
    22:00 +19°C° 0 mm 2 mps 759 mmHg 74%
    23:00 +18°C° 0 mm 2 mps 758 mmHg 76%

    Tomorrow, 27 May, Saturday

    Time Temperature Precipitation Wind Pressure Humidity
    00:00 +19°C° 0 mm 1 mps 758 mmHg 78%
    01:00 +18°C° 0 mm 1 mps 758 mmHg 80%
    02:00 +18°C° 0 mm 1 mps 758 mmHg 81%
    03:00 +18°C° 0 mm 1 mps 758 mmHg 82%
    04:00 +18°C° 0 mm 1 mps 758 mmHg 79%
    05:00 +19°C° 0 mm 1 mps 758 mmHg 76%
    06:00 +20°C° 0 mm 1 mps 758 mmHg 73%
    07:00 +21°C° 0 mm 1 mps 758 mmHg 67%
    08:00 +23°C° 0 mm 1 mps 758 mmHg 60%
    09:00 +24°C° 0 mm 2 mps 757 mmHg 54%
    10:00 +26°C° 0 mm 2 mps 757 mmHg 50%
    11:00 +27°C° 0 mm 2 mps 757 mmHg 46%
    12:00 +28°C° 0 mm 2 mps 756 mmHg 42%
    13:00 +28°C° 0 mm 3 mps 756 mmHg 41%
    14:00 +29°C° 0 mm 3 mps 755 mmHg 40%
    15:00 +29°C° 0 mm 4 mps 755 mmHg 39%
    16:00 +28°C° 0.1 mm 4 mps 754 mmHg 43%
    17:00 +27°C° 0.1 mm 4 mps 754 mmHg 47%
    18:00 +25°C° 0.1 mm 4 mps 754 mmHg 51%
    19:00 +24°C° 0 mm 3 mps 754 mmHg 55%
    20:00 +22°C° 0 mm 3 mps 755 mmHg 59%
    21:00 +21°C° 0 mm 2 mps 755 mmHg 63%
    22:00 +20°C° 0 mm 2 mps 755 mmHg 65%
    23:00 +21°C° 0 mm 1 mps 755 mmHg 67%

    Day after tomorrow, 28 May, Sunday

    Time Temperature Precipitation Wind Pressure Humidity
    00:00 +20°C° 0 mm 1 mps 755 mmHg 69%
    01:00 +20°C° 0 mm 1 mps 755 mmHg 69%
    02:00 +20°C° 0 mm 1 mps 755 mmHg 70%
    03:00 +19°C° 0 mm 1 mps 755 mmHg 71%
    04:00 +20°C° 0 mm 1 mps 755 mmHg 68%
    05:00 +21°C° 0 mm 1 mps 756 mmHg 65%
    06:00 +21°C° 0 mm 1 mps 756 mmHg 62%
    07:00 +23°C° 0 mm 1 mps 756 mmHg 56%
    08:00 +25°C° 0 mm 1 mps 756 mmHg 50%
    09:00 +27°C° 0 mm 2 mps 756 mmHg 44%
    10:00 +28°C° 0 mm 2 mps 756 mmHg 40%
    11:00 +30°C° 0 mm 2 mps 756 mmHg 35%
    12:00 +31°C° 0 mm 2 mps 756 mmHg 30%
    13:00 +31°C° 0 mm 3 mps 755 mmHg 31%
    14:00 +32°C° 0 mm 4 mps 755 mmHg 32%
    15:00 +32°C° 0 mm 5 mps 754 mmHg 32%
    16:00 +30°C° 0 mm 5 mps 754 mmHg 37%
    17:00 +28°C° 0 mm 6 mps 755 mmHg 42%
    18:00 +26°C° 0 mm 6 mps 755 mmHg 47%
    19:00 +25°C° 0 mm 5 mps 755 mmHg 50%
    20:00 +23°C° 0 mm 4 mps 756 mmHg 52%
    21:00 +21°C° 0 mm 3 mps 756 mmHg 54%
    22:00 +21°C° 0 mm 2 mps 756 mmHg 56%
    23:00 +21°C° 0 mm 1 mps 757 mmHg 58%

    29 May, Monday

    Time Temperature Precipitation Wind Pressure Humidity
    00:00 +21°C° 0 mm 1 mps 757 mmHg 60%
    01:00 +21°C° 0 mm 1 mps 757 mmHg 60%
    02:00 +21°C° 0 mm 1 mps 757 mmHg 60%
    03:00 +19°C° 0 mm 2 mps 758 mmHg 60%
    04:00 +20°C° 0 mm 2 mps 758 mmHg 59%
    05:00 +21°C° 0 mm 2 mps 759 mmHg 59%
    06:00 +21°C° 0 mm 2 mps 760 mmHg 58%
    07:00 +24°C° 0 mm 3 mps 760 mmHg 53%
    08:00 +25°C° 0 mm 3 mps 761 mmHg 48%
    09:00 +26°C° 0 mm 4 mps 761 mmHg 43%
    10:00 +27°C° 0 mm 5 mps 762 mmHg 42%
    11:00 +27°C° 0 mm 6 mps 762 mmHg 41%
    12:00 +28°C° 0 mm 8 mps 762 mmHg 40%
    13:00 +27°C° 0 mm 9 mps 762 mmHg 42%
    14:00 +26°C° 0 mm 10 mps 762 mmHg 44%
    15:00 +24°C° 0 mm 11 mps 763 mmHg 46%
    16:00 +23°C° 0 mm 11 mps 763 mmHg 49%
    17:00 +22°C° 0 mm 10 mps 764 mmHg 52%
    18:00 +19°C° 0 mm 10 mps 764 mmHg 55%
    19:00 +18°C° 0 mm 9 mps 765 mmHg 56%
    20:00 +17°C° 0 mm 8 mps 765 mmHg 57%
    21:00 +16°C° 0 mm 7 mps 766 mmHg 58%
    22:00 +16°C° 0 mm 7 mps 766 mmHg 58%
    23:00 +16°C° 0 mm 6 mps 765 mmHg 59%

    30 May, Tuesday

    Time Temperature Precipitation Wind Pressure Humidity
    00:00 +15°C° 0 mm 5 mps 765 mmHg 59%
    01:00 +15°C° 0 mm 4 mps 765 mmHg 60%
    02:00 +16°C° 0 mm 3 mps 765 mmHg 60%
    03:00 +15°C° 0 mm 2 mps 764 mmHg 61%
    04:00 +16°C° 0 mm 2 mps 764 mmHg 59%
    05:00 +16°C° 0 mm 2 mps 764 mmHg 58%
    06:00 +17°C° 0 mm 2 mps 764 mmHg 56%
    07:00 +18°C° 0 mm 2 mps 764 mmHg 53%
    08:00 +19°C° 0 mm 2 mps 764 mmHg 50%
    09:00 +20°C° 0 mm 2 mps 764 mmHg 47%
    10:00 +21°C° 0 mm 2 mps 763 mmHg 46%
    11:00 +22°C° 0 mm 3 mps 762 mmHg 44%
    12:00 +25°C° 0 mm 3 mps 762 mmHg 43%
    13:00 +25°C° 0 mm 4 mps 761 mmHg 42%
    14:00 +26°C° 0 mm 4 mps 760 mmHg 42%
    15:00 +26°C° 0 mm 5 mps 760 mmHg 41%
    16:00 +26°C° 0 mm 5 mps 760 mmHg 45%
    17:00 +25°C° 0 mm 5 mps 760 mmHg 48%
    18:00 +23°C° 0 mm 5 mps 759 mmHg 52%
    19:00 +21°C° 0 mm 4 mps 760 mmHg 56%
    20:00 +20°C° 0 mm 4 mps 760 mmHg 61%
    21:00 +19°C° 0 mm 3 mps 760 mmHg 66%
    22:00 +19°C° 0 mm 2 mps 759 mmHg 67%
    23:00 +18°C° 0 mm 2 mps 759 mmHg 69%

    31 May, Wednesday

    Time Temperature Precipitation Wind Pressure Humidity
    00:00 +19°C° 0 mm 1 mps 759 mmHg 71%
    01:00 +18°C° 0 mm 1 mps 758 mmHg 73%
    02:00 +18°C° 0 mm 1 mps 758 mmHg 74%
    03:00 +18°C° 0 mm 1 mps 758 mmHg 75%
    04:00 +19°C° 0 mm 1 mps 758 mmHg 72%
    05:00 +20°C° 0 mm 1 mps 758 mmHg 69%
    06:00 +21°C° 0 mm 1 mps 757 mmHg 66%
    07:00 +23°C° 0 mm 2 mps 757 mmHg 58%
    08:00 +25°C° 0 mm 2 mps 757 mmHg 51%
    09:00 +27°C° 0 mm 2 mps 757 mmHg 44%
    10:00 +28°C° 0 mm 2 mps 756 mmHg 40%
    11:00 +30°C° 0 mm 2 mps 756 mmHg 35%
    12:00 +31°C° 0 mm 2 mps 755 mmHg 31%
    13:00 +33°C° 0 mm 3 mps 755 mmHg 31%
    14:00 +33°C° 0 mm 4 mps 754 mmHg 31%
    15:00 +34°C° 0 mm 4 mps 754 mmHg 31%
    16:00 +32°C° 0 mm 5 mps 754 mmHg 35%
    17:00 +29°C° 0 mm 5 mps 754 mmHg 39%
    18:00 +28°C° 0 mm 5 mps 754 mmHg 43%
    19:00 +26°C° 0.1 mm 4 mps 754 mmHg 48%
    20:00 +25°C° 0.1 mm 3 mps 754 mmHg 52%
    21:00 +23°C° 0.1 mm 2 mps 754 mmHg 57%
    22:00 +23°C° 0.3 mm 2 mps 754 mmHg 59%
    23:00 +23°C° 0.3 mm 2 mps 754 mmHg 61%
    Show more